Stations météo

Publicité
Beziers-Vias, France (7638): Température de l'air & dewpoint: 14.04.2019 14:00:00 - 20.04.2019 14:00:00 (CEST)Beziers-Vias, France (7638): Vitesse du vent & gusts: 14.04.2019 14:00:00 - 20.04.2019 14:00:00 (CEST)Beziers-Vias, France (7638): Direction du vent: 14.04.2019 14:00:00 - 20.04.2019 14:00:00 (CEST)Beziers-Vias, France (7638): reduced air pressure: 14.04.2019 14:00:00 - 20.04.2019 14:00:00 (CEST)Beziers-Vias, France (7638): visibility: 14.04.2019 14:00:00 - 20.04.2019 14:00:00 (CEST)Beziers-Vias, France (7638): Quantités de précipitations: 14.04.2019 14:00:00 - 20.04.2019 14:00:00 (CEST)
Date & Time tt [°C] td [°C] ff [km/h] ff [knt] fx [km/h] fx [knt] dd ppp [hPa] vv [km] rr [mm]
20.04.2019 14:00:00 21,6 3,7 23 12 48 26 SE 1023,6 38 0,0
20.04.2019 13:00:00 21,9 3,0 21 11 40 22 ESE 1024,0 41 0,0
20.04.2019 12:00:00 21,0 4,5 17 9 34 18 ESE 1024,3 46 0,0
20.04.2019 11:00:00 20,3 6,2 16 9 29 15 E 1024,7 20 0,0
20.04.2019 10:00:00 17,3 5,9 10 5 18 10 NE 1024,8 34 0,0
20.04.2019 09:00:00 13,8 5,4 12 6 18 10 NE 1024,9 43 0,0
20.04.2019 08:00:00 10,4 5,6 7 4 12 7 N 1024,8 51 0,0
20.04.2019 07:00:00 8,6 5,0 10 5 16 8 N 1024,5 34 0,0
20.04.2019 06:00:00 8,7 5,1 5 3 13 7 N 1024,7 34 0,0
20.04.2019 05:00:00 9,5 5,7 7 4 16 8 N 1024,9 30 0,0
20.04.2019 04:00:00 9,1 6,0 13 7 17 9 N 1025,1 33 0,0
20.04.2019 03:00:00 9,2 5,6 5 3 13 7 N 1025,5 35 0,0
20.04.2019 02:00:00 9,9 6,1 12 7 15 8 N 1026,0 34 0,0
20.04.2019 01:00:00 10,8 6,5 9 5 18 10 N 1026,6 34 0,0
20.04.2019 00:00:00 11,1 6,6 11 6 20 11 N 1026,9 34 0,0
19.04.2019 23:00:00 12,5 7,2 13 7 22 12 NNE 1027,1 36 0,0
19.04.2019 22:00:00 12,3 8,0 14 7 16 8 N 1026,8 31 0,0
19.04.2019 21:00:00 14,1 8,1 8 4 10 5 NNE 1026,6 31 0,0
19.04.2019 20:00:00 16,4 8,6 5 3 24 13 SSE 1026,3 30 0,0
19.04.2019 19:00:00 17,5 8,4 14 8 27 15 SE 1026,0 28 0,0
19.04.2019 18:00:00 18,4 8,6 17 9 36 19 SSE 1026,1 24 0,0
19.04.2019 17:00:00 19,0 8,9 17 9 37 20 SE 1026,4 30 0,0
19.04.2019 16:00:00 19,3 8,0 22 12 40 22 SE 1026,4 30 0,0
19.04.2019 15:00:00 19,3 8,3 21 11 44 24 ESE 1026,7 19 0,0
19.04.2019 14:00:00 18,7 8,4 18 10 39 21 SSE 1026,8 20 0,0
19.04.2019 13:00:00 18,4 7,8 29 15 54 29 SE 1026,8 34 0,0
19.04.2019 12:00:00 19,7 6,4 29 16 51 28 ESE 1026,5 37 0,0
19.04.2019 11:00:00 18,3 8,5 19 10 36 19 ESE 1026,0 36 0,0
19.04.2019 10:00:00 17,6 10,0 15 8 24 13 ESE 1025,3 17 0,0
19.04.2019 09:00:00 15,3 8,8 11 6 18 10 NE 1024,7 30 0,0
19.04.2019 08:00:00 12,0 7,7 10 5 15 8 NNE 1024,3 26 0,0
19.04.2019 07:00:00 10,3 6,4 9 5 14 7 NE 1023,7 29 0,0
19.04.2019 06:00:00 10,3 6,6 8 4 16 8 NNE 1023,3 26 0,0
19.04.2019 05:00:00 10,4 6,9 6 3 11 6 N 1023,3 27 0,0
19.04.2019 04:00:00 10,1 6,8 3 2 11 6 WNW 1022,9 26 0,0
19.04.2019 03:00:00 10,1 7,0 11 6 17 9 N 1022,7 27 0,0
19.04.2019 02:00:00 10,6 7,3 10 5 14 8 N 1022,9 25 0,0
19.04.2019 01:00:00 12,2 8,1 10 6 19 10 NE 1022,8 27 0,0
19.04.2019 00:00:00 12,4 8,3 9 5 12 6 NE 1022,5 30 0,0
18.04.2019 23:00:00 13,6 9,2 9 5 17 9 NE 1022,1 34 0,0
18.04.2019 22:00:00 13,6 9,8 8 4 12 6 NE 1021,8 35 0,0
18.04.2019 21:00:00 14,6 9,8 9 5 15 8 ENE 1021,5 36 0,0
18.04.2019 20:00:00 15,9 9,8 2 1 12 6 S 1020,9 20 0,0
18.04.2019 19:00:00 16,9 9,6 8 4 18 10 E 1020,5 19 0,0
18.04.2019 18:00:00 17,0 8,2 10 5 25 13 ESE 1020,3 43 0,0
18.04.2019 17:00:00 17,3 5,2 14 8 30 16 SSE 1020,2 50 0,0
18.04.2019 16:00:00 18,2 5,4 13 7 28 15 ESE 1020,4 54 0,0
18.04.2019 15:00:00 18,2 4,0 18 10 34 18 SE 1020,9 58 0,0
18.04.2019 14:00:00 18,1 7,8 19 10 33 18 ESE 1021,2 20 0,0
18.04.2019 13:00:00 17,7 8,5 19 10 35 19 SE 1021,5 53 0,0
18.04.2019 12:00:00 16,9 9,1 22 12 34 18 ESE 1021,5 44 0,0
18.04.2019 11:00:00 16,2 10,7 21 11 31 17 E 1021,1 41 0,0
18.04.2019 10:00:00 14,5 11,1 20 11 30 16 E 1020,8 19 0,0
18.04.2019 09:00:00 13,5 11,0 19 10 25 14 ENE 1020,5 14 0,0
18.04.2019 08:00:00 11,0 10,4 12 7 20 11 NE 1020,4 7 0,0
18.04.2019 07:00:00 10,6 10,0 10 6 16 8 NE 1020,2 6 0,0
18.04.2019 06:00:00 12,0 10,9 12 7 19 10 ENE 1019,6 11 0,0
18.04.2019 05:00:00 12,7 11,4 11 6 19 11 E 1019,7 26 0,0
18.04.2019 04:00:00 12,5 11,2 10 6 16 9 E 1019,9 30 0,0
18.04.2019 03:00:00 12,9 11,5 12 6 18 10 E 1020,0 18 0,0
18.04.2019 02:00:00 12,6 11,3 11 6 21 11 E 1020,6 20 0,0
18.04.2019 01:00:00 13,6 11,8 15 8 22 12 E 1020,8 32 0,0
18.04.2019 00:00:00 13,6 11,8 14 7 26 14 E 1020,5 32 0,0
17.04.2019 23:00:00 13,9 11,6 12 7 22 12 ESE 1020,5 34 0,0
17.04.2019 22:00:00 13,8 11,7 14 7 25 14 E 1020,0 30 0,0
17.04.2019 21:00:00 13,8 11,3 15 8 25 13 E 1019,4 33 0,0
17.04.2019 20:00:00 13,9 10,9 13 7 31 17 ESE 1019,1 47 0,0
17.04.2019 19:00:00 14,4 10,6 16 9 32 17 ESE 1019,0 57 0,0
17.04.2019 18:00:00 15,2 10,2 19 10 33 18 SE 1018,9 53 0,0
17.04.2019 17:00:00 15,8 8,8 19 10 35 19 ESE 1018,9 46 0,0
17.04.2019 16:00:00 16,4 8,9 19 11 36 20 SE 1019,5 42 0,0
17.04.2019 15:00:00 16,5 8,5 19 11 32 17 ESE 1019,7 40 0,0
17.04.2019 14:00:00 16,0 7,7 17 9 34 18 SE 1020,2 43 0,0
17.04.2019 13:00:00 16,1 6,8 20 11 36 20 ESE 1020,4 45 0,0
17.04.2019 12:00:00 16,0 8,0 21 11 32 17 ESE 1020,6 48 0,0
17.04.2019 11:00:00 15,2 8,9 21 11 31 17 E 1020,5 20 0,0
17.04.2019 10:00:00 13,1 9,5 19 10 26 14 E 1020,4 20 0,0
17.04.2019 09:00:00 10,7 9,1 16 9 23 12 ENE 1020,2 13 0,0
17.04.2019 08:00:00 7,6 6,7 8 4 13 7 NE 1020,3 23 0,0
17.04.2019 07:00:00 6,7 6,0 6 3 16 8 NE 1020,0 19 0,0
17.04.2019 06:00:00 6,8 6,2 4 2 16 9 NNE 1019,8 17 0,0
17.04.2019 05:00:00 7,1 6,7 11 6 16 9 NNE 1020,0 15 0,0
17.04.2019 04:00:00 7,5 7,1 8 5 14 8 NNE 1020,3 12 0,0
17.04.2019 03:00:00 7,6 7,2 4 2 12 7 WNW 1020,9 7 0,0
17.04.2019 02:00:00 7,8 7,4 3 2 4 2 NNE 1021,3 6 0,0
17.04.2019 01:00:00 7,9 7,3 4 2 8 4 N 1021,5 6 0,0
17.04.2019 00:00:00 8,5 7,9 4 2 9 5 NNW 1021,4 9 0,0
16.04.2019 23:00:00 8,4 7,2 5 3 7 4 NW 1021,7 11 0,0
16.04.2019 22:00:00 9,5 7,4 0 0 4 2 N 1021,6 24 0,0
16.04.2019 21:00:00 12,0 9,2 4 2 10 6 S 1021,2 35 0,0
16.04.2019 20:00:00 13,4 9,3 7 4 18 10 S 1020,8 59 0,0
16.04.2019 19:00:00 14,7 8,6 10 6 19 10 SSE 1020,5 52 0,0
16.04.2019 18:00:00 15,2 9,8 11 6 21 11 SE 1020,4 52 0,0
16.04.2019 17:00:00 14,8 10,8 10 6 21 11 SE 1020,7 28 0,0
16.04.2019 16:00:00 14,8 10,4 6 3 22 12 NNE 1021,1 57 0,0
16.04.2019 15:00:00 14,2 11,9 12 7 22 12 NNE 1021,3 50 0,0
16.04.2019 14:00:00 12,5 10,9 14 8 21 12 NNE 1021,3 15 0,2
16.04.2019 13:00:00 12,9 11,0 9 5 22 12 NNE 1021,6 20 0,0
16.04.2019 12:00:00 12,3 11,4 13 7 18 10 N 1021,3 19 0,2
16.04.2019 11:00:00 11,2 10,6 11 6 19 10 N 1021,2 4,6 0,6
16.04.2019 10:00:00 11,1 10,3 11 6 15 8 N 1020,5 9 0,0
16.04.2019 09:00:00 11,0 10,1 8 5 17 9 N 1019,8 17 0,0
16.04.2019 08:00:00 11,3 10,5 12 6 19 10 NNE 1018,7 14 0,2
16.04.2019 07:00:00 11,4 10,3 9 5 21 12 SE 1018,4 7 0,4
16.04.2019 06:00:00 11,3 10,0 16 9 23 12 NNE 1017,8 15 0,0
16.04.2019 05:00:00 12,4 11,5 16 9 29 16 ENE 1017,9 19 0,2
16.04.2019 04:00:00 12,6 11,8 13 7 19 10 ENE 1018,0 6 0,8
16.04.2019 03:00:00 12,9 10,8 8 5 15 8 ENE 1018,2 19 0,0
16.04.2019 02:00:00 13,0 10,5 11 6 20 11 E 1018,2 29 0,0
16.04.2019 01:00:00 13,1 10,1 6 4 21 11 E 1018,8 34 0,0
16.04.2019 00:00:00 13,3 10,3 13 7 24 13 ESE 1017,9 33 0,0
15.04.2019 23:00:00 13,4 10,4 14 7 22 12 ESE 1017,9 20 0,0
15.04.2019 22:00:00 13,6 10,2 13 7 23 12 SE 1017,8 31 0,0
15.04.2019 21:00:00 13,5 9,9 14 8 26 14 SE 1017,4 36 0,0
15.04.2019 20:00:00 13,9 9,7 14 7 30 16 SE 1017,4 37 0,0
15.04.2019 19:00:00 14,2 9,8 14 8 29 16 SE 1017,4 35 0,0
15.04.2019 18:00:00 14,3 8,9 16 9 31 17 SE 1017,4 37 0,0
15.04.2019 17:00:00 14,3 7,8 17 9 35 19 SE 1017,4 36 0,0
15.04.2019 16:00:00 13,7 6,8 20 11 32 17 ESE 1017,8 20 0,0
15.04.2019 15:00:00 14,6 3,4 14 8 29 16 ESE 1018,3 20 0,0
15.04.2019 14:00:00 14,6 2,8 17 9 29 16 SE 1018,1 34 0,0
15.04.2019 13:00:00 13,9 0,8 13 7 29 16 ESE 1018,6 35 0,0
15.04.2019 12:00:00 13,9 -0,9 16 9 32 17 ESE 1019,1 33 0,0
15.04.2019 11:00:00 14,5 -2,5 22 12 31 17 E 1018,8 31 0,0
15.04.2019 10:00:00 11,7 -3,3 14 8 23 12 NE 1018,6 48 0,0
15.04.2019 09:00:00 8,8 -1,6 10 5 16 9 NNE 1018,7 33 0,0
15.04.2019 08:00:00 5,1 -0,7 7 4 14 7 N 1018,6 36 0,0
15.04.2019 07:00:00 3,6 -1,8 6 3 16 8 NNW 1018,4 21 0,0
15.04.2019 06:00:00 3,3 -1,7 6 3 12 7 ENE 1018,4 36 0,0
15.04.2019 05:00:00 4,4 -1,8 9 5 16 9 NE 1018,3 38 0,0
15.04.2019 04:00:00 5,3 -1,8 11 6 16 9 NNE 1018,4 40 0,0
15.04.2019 03:00:00 4,5 -0,9 4 2 11 6 N 1018,8 36 0,0
15.04.2019 02:00:00 5,9 -1,7 5 3 14 8 NE 1019,0 40 0,0
15.04.2019 01:00:00 7,7 -2,1 11 6 16 8 E 1018,7 42 0,0
15.04.2019 00:00:00 8,2 -0,3 11 6 21 11 E 1018,4 44 0,0
14.04.2019 23:00:00 9,0 1,9 4 2 14 8 SSW 1017,8 35 0,0
14.04.2019 22:00:00 10,4 1,5 4 2 15 8 N 1017,1 42 0,0
14.04.2019 21:00:00 13,0 0,0 10 6 26 14 NE 1015,8 58 0,0
14.04.2019 20:00:00 17,3 -4,7 13 7 37 20 N 1014,7 60 0,0
14.04.2019 19:00:00 19,1 -6,6 29 15 49 26 NNW 1014,3 39 0,0
14.04.2019 18:00:00 19,8 -6,0 28 15 42 23 NNW 1013,8 33 0,0
14.04.2019 17:00:00 16,1 4,8 14 8 27 15 SSE 1013,6 43 0,0
14.04.2019 16:00:00 14,6 4,6 15 8 26 14 SSE 1014,0 20 0,0
14.04.2019 15:00:00 15,1 2,9 15 8 26 14 S 1014,5 20 0,0
14.04.2019 14:00:00 15,6 2,0 9 5 25 13 SE 1014,7 20 0,0

tt = Température de l'air
td = dewpoint
ff = Vitesse du vent
fx = gusts
dd = Direction du vent
ppp = reduced air pressure
vv = visibility
rr = Quantités de précipitations

stations d'obs. à proximité